This demonstration page uses our WeatherBlox Daily Observations layout. Learn more.

Left ArrowRight Arrow

38.80484, -77.04692

Hourly Observations for December 15, 2018

Temp ( °F °C ) Dew Point ( °F °C ) Humidity (%) Winds ( mph kmh ) Pressure ( in mb ) Visibility ( mi km ) Precip ( " mm )
12:22 am 00:22 Cloudy with Light Rain 48 8.9 45 7.2 89 89 NNE 10 17 30.18 1022 3 4 0.02 0.51
12:35 am 00:35 Cloudy with Drizzle 48 8.9 46 7.8 93 93 NNE 9 15 30.15 1021 3 5 0.02 0.51
12:52 am 00:52 Cloudy with Drizzle 49 9.4 46 7.8 90 90 NNE 10 17 30.15 1021 3 5 0.02 0.51
1:26 am 01:26 Cloudy with Rain 49 9.4 46 7.8 90 90 NE 10 17 30.15 1021 2 3 0.01 0.25
1:47 am 01:47 Cloudy with Drizzle 48 9 46 8 94 94 NNE 9 15 30.15 1021 3 5 0.02 0.51
1:52 am 01:52 Cloudy with Drizzle 49 9.4 46 7.8 90 90 NNE 9 15 30.14 1021 3 5 0.02 0.51
2:52 am 02:52 Cloudy with Drizzle 50 10 47 8.3 89 89 NNE 13 20 30.12 1020 3 5 0.00 0.03
2:56 am 02:56 Cloudy with Drizzle 50 10 47 8.3 89 89 NNE 10 17 30.12 1020 3 4 0.00 0.03
3:44 am 03:44 Cloudy with Rain 50 10 48 8.9 93 93 NNE 7 11 30.09 1019 3 4 0.06 1.52
3:52 am 03:52 Cloudy with Light Rain 50 10 47 8.3 89 89 NNE 10 17 30.09 1019 3 5 0.07 1.78
4:05 am 04:05 Cloudy with Light Rain 50 10 47 8.3 89 89 NNE 10 17 30.09 1019 5 8 0.01 0.25
4:52 am 04:52 Cloudy with Rain 50 10 48 8.9 93 93 NNE 12 19 30.07 1018 3 5 0.04 1.02
5:22 am 05:22 Cloudy with Light Rain 50 10 48 8.9 93 93 NE 12 19 30.06 1018 4 6 0.03 0.76
5:52 am 05:52 Cloudy with Light Rain 50 10 48 8.9 93 93 NE 10 17 30.05 1018 6 10 0.06 1.52
6:18 am 06:18 Cloudy with Heavy Rain 51 10.6 48 8.9 89 89 NE 15 24 30.06 1018 4 6 0.04 1.02
6:21 am 06:21 Cloudy with Heavy Rain 51 10.6 48 8.9 89 89 NE 12 19 30.06 1018 4 6 0.05 1.27
6:37 am 06:37 Cloudy with Light Rain 50 10 48 8.9 93 93 NE 14 22 30.06 1018 4 6 0.09 2.29
6:52 am 06:52 Cloudy with Light Rain 50 10 47 8.3 89 89 NE 15 24 30.04 1017 5 8 0.10 2.54
7:52 am 07:52 Cloudy with Light Rain 51 10.6 49 9.4 92 92 NE 14 22 30.04 1017 6 10 0.03 0.76
8:10 am 08:10 Cloudy with Light Rain 52 11.1 49 9.4 89 89 NNE 12 19 30.03 1017 6 10 0.00 0.03
8:26 am 08:26 Cloudy with Rain 52 11.1 49 9.4 89 89 NNE 12 19 30.03 1017 3 4 0.01 0.25
8:52 am 08:52 Cloudy with Rain 53 11.7 50 10 89 89 N 9 15 30.03 1017 3 4 0.06 1.52
9:37 am 09:37 Cloudy with Heavy Rain 53 11.7 51 10.6 93 93 N 9 15 30.03 1017 2 3 0.13 3.30
9:52 am 09:52 Cloudy with Heavy Rain 53 11.7 51 10.6 93 93 NNE 12 19 30.04 1017 1 2 0.20 5.08
10:00 am 10:00 Cloudy with Heavy Rain 53 11.7 51 10.6 93 93 NE 12 19 30.03 1017 1 2 0.04 1.02
10:15 am 10:15 Cloudy with Light Rain 53 11.7 51 10.6 93 93 NE 12 19 30.03 1017 3 4 0.08 2.03
10:30 am 10:30 Cloudy with Rain 54 12.2 51 10.6 90 90 NNE 10 17 30.03 1017 3 5 0.11 2.79
10:37 am 10:37 Cloudy with Rain 54 12.2 52 11.1 93 93 NNE 10 17 30.03 1017 4 6 0.12 3.05
10:52 am 10:52 Cloudy with Light Rain 55 12.8 52 11.1 90 90 N 12 19 30.03 1017 4 6 0.14 3.56
11:00 am 11:00 Cloudy with Rain 54 12.2 52 11.1 93 93 NNE 10 17 30.03 1017 2 2 0.01 0.25
11:36 am 11:36 Cloudy with Rain 54 12.2 52 11.1 93 93 NNE 15 24 30.03 1017 2 3 0.16 4.06
11:43 am 11:43 Cloudy with Heavy Rain 54 12.2 52 11.1 93 93 NNE 13 20 30.03 1017 2 3 0.19 4.83
11:52 am 11:52 Cloudy with Rain 54 12.2 51 10.6 90 90 NNE 10 17 30.02 1017 2 3 0.23 5.84
12:00 pm 12:00 Cloudy with Light Rain 54 12.2 52 11.1 93 93 N 13 20 30.03 1017 3 5 0.02 0.51
12:20 pm 12:20 Cloudy with Rain 54 12.2 51 10.6 90 90 NNE 14 22 30.00 1016 2 3 0.05 1.27
12:36 pm 12:36 Cloudy with Light Rain 54 12.2 51 10.6 90 90 NNE 16 26 30.00 1016 4 6 0.08 2.03
12:52 pm 12:52 Cloudy with Light Rain 53 11.7 50 10 89 89 NNE 18 30 29.98 1015 10 16 0.08 2.03
1:41 pm 13:41 Cloudy with Light Rain 53 11.7 50 10 89 89 NE 17 28 29.97 1015 3 5 0.01 0.25
1:46 pm 13:46 Cloudy with Light Rain 54 12 50 10 88 88 NE 16 26 29.94 1014 3 4 0.01 0.25
1:52 pm 13:52 Cloudy with Light Rain 53 11.7 50 10 89 89 NE 14 22 29.94 1014 3 4 0.01 0.25
2:13 pm 14:13 Cloudy with Light Rain 53 11.7 50 10 89 89 NE 14 22 29.94 1014 2 2 0.01 0.25
2:32 pm 14:32 Cloudy with Light Rain 53 11.7 51 10.6 93 93 NE 10 17 29.97 1015 2 2 0.04 1.02
2:52 pm 14:52 Cloudy with Rain 53 11.7 51 10.6 93 93 NE 9 15 29.95 1014 2 3 0.08 2.03
2:59 pm 14:59 Cloudy with Light Rain 53 11.7 51 10.6 93 93 NE 10 17 29.94 1014 2 3 0.01 0.25
3:07 pm 15:07 Cloudy with Rain 53 11.7 51 10.6 93 93 NE 13 20 29.94 1014 2 3 0.03 0.76
3:25 pm 15:25 Cloudy with Rain 53 11.7 51 10.6 93 93 NE 16 26 29.94 1014 2 3 0.06 1.52
3:52 pm 15:52 Cloudy with Rain 52 11.1 50 10 93 93 NE 12 19 29.97 1015 2 3 0.10 2.54
4:03 pm 16:03 Cloudy with Rain 53 11.7 50 10 89 89 NNE 13 20 29.97 1015 2 2 0.04 1.02
4:14 pm 16:14 Cloudy with Rain 53 11.7 50 10 89 89 NNE 13 20 29.97 1015 2 2 0.07 1.78
4:16 pm 16:16 Cloudy with Rain 53 11.7 51 10.6 93 93 NNE 12 19 29.97 1015 2 3 0.08 2.03
4:23 pm 16:23 Cloudy with Rain 53 11.7 51 10.6 93 93 N 9 15 29.97 1015 2 3 0.10 2.54
4:26 pm 16:26 Cloudy with Rain 53 11.7 51 10.6 93 93 N 10 17 29.97 1015 2 3 0.11 2.79
4:33 pm 16:33 Cloudy with Heavy Rain 53 11.7 50 10 89 89 NNE 14 22 29.97 1015 2 3 0.13 3.30
4:52 pm 16:52 Cloudy with Rain 53 11.7 51 10.6 93 93 NNE 10 17 29.97 1015 3 4 0.23 5.84
4:54 pm 16:54 Cloudy with Rain 53 11.7 51 10.6 93 93 NNE 12 19 29.97 1015 3 5 0.01 0.25
5:08 pm 17:08 Cloudy with Rain 53 11.7 51 10.6 93 93 NNE 12 19 29.97 1015 3 5 0.04 1.02
5:43 pm 17:43 Cloudy with Rain 53 11.7 50 10 89 89 NE 15 24 29.97 1015 4 6 0.12 3.05
5:52 pm 17:52 Cloudy with Rain 53 11.7 50 10 89 89 NE 14 22 29.96 1015 4 6 0.14 3.56
5:57 pm 17:57 Cloudy with Light Rain 53 11.7 50 10 89 89 NE 13 20 29.97 1015 4 6 0.01 0.25
6:00 pm 18:00 Cloudy with Light Rain 53 11.7 50 10 89 89 NE 13 20 29.97 1015 4 6 0.01 0.25
6:08 pm 18:08 Cloudy with Rain 53 11.7 50 10 89 89 NNE 10 17 29.97 1015 4 6 0.02 0.51
6:12 pm 18:12 Cloudy with Rain 53 11.7 50 10 89 89 NE 10 17 29.97 1015 3 5 0.03 0.76
6:27 pm 18:27 Cloudy with Light Rain 53 11.7 50 10 89 89 NNE 12 19 29.97 1015 4 6 0.06 1.52
6:52 pm 18:52 Cloudy with Rain 53 11.7 50 10 89 89 NNE 9 15 29.97 1015 4 6 0.12 3.05
7:10 pm 19:10 Cloudy with Light Rain 53 11.7 50 10 89 89 NE 16 26 29.97 1015 3 5 0.01 0.25
7:33 pm 19:33 Cloudy with Light Rain 53 11.7 50 10 89 89 NNE 9 15 29.97 1015 3 5 0.05 1.27
7:42 pm 19:42 Cloudy with Rain 53 11.7 50 10 89 89 NE 12 19 29.97 1015 3 5 0.06 1.52
7:52 pm 19:52 Cloudy with Rain 52 11.1 50 10 93 93 NE 10 17 29.96 1015 3 5 0.08 2.03
7:55 pm 19:55 Cloudy with Rain 53 11.7 50 10 89 89 NE 10 17 29.97 1015 3 4 0.01 0.25
8:34 pm 20:34 Cloudy with Rain 52 11.1 50 10 93 93 NNE 9 15 29.94 1014 3 4 0.11 2.79
8:38 pm 20:38 Cloudy with Heavy Rain 52 11.1 50 10 93 93 NNE 9 15 29.94 1014 3 4 0.13 3.30
8:45 pm 20:45 Cloudy with Light Rain 52 11.1 49 9.4 89 89 NE 9 15 29.94 1014 3 5 0.15 3.81
8:52 pm 20:52 Cloudy with Rain 52 11.1 50 10 93 93 NE 9 15 29.94 1014 3 5 0.16 4.06
8:54 pm 20:54 Cloudy with Light Rain 52 11.1 50 10 93 93 NE 8 13 29.94 1014 3 5 0.00 0.03
8:57 pm 20:57 Cloudy with Rain 52 11.1 49 9.4 89 89 NE 8 13 29.94 1014 3 5 0.00 0.03
9:00 pm 21:00 Cloudy with Rain 52 11.1 50 10 93 93 NE 8 13 29.94 1014 3 5 0.01 0.25
9:11 pm 21:11 Cloudy with Heavy Rain 52 11.1 50 10 93 93 NNE 8 13 29.94 1014 3 5 0.04 1.02
9:52 pm 21:52 Cloudy with Heavy Rain 51 10.6 49 9.4 92 92 NNE 12 19 29.93 1014 3 5 0.19 4.83
9:56 pm 21:56 Cloudy with Heavy Rain 51 10.6 49 9.4 92 92 NNE 12 19 29.94 1014 3 4 0.02 0.51
10:13 pm 22:13 Cloudy with Heavy Rain 51 10.6 49 9.4 92 92 N 10 17 29.94 1014 3 5 0.12 3.05
10:16 pm 22:16 Cloudy with Heavy Rain 51 10.6 49 9.4 92 92 N 10 17 29.94 1014 3 5 0.13 3.30
10:21 pm 22:21 Cloudy with Heavy Rain 51 10.6 48 8.9 89 89 N 10 17 29.91 1013 3 4 0.15 3.81
10:24 pm 22:24 Cloudy with Heavy Rain 51 10.6 48 8.9 89 89 NNE 13 20 29.91 1013 2 3 0.18 4.57
10:28 pm 22:28 Cloudy with Heavy Rain 51 10.6 48 8.9 89 89 N 10 17 29.91 1013 2 3 0.22 5.59
10:34 pm 22:34 Cloudy with Heavy Rain 51 10.6 48 8.9 89 89 N 10 17 29.91 1013 2 3 0.28 7.11
10:47 pm 22:47 Cloudy with Light Rain 52 11 48 9 88 88 N 12 19 29.91 1013 4 6 0.31 7.87
10:48 pm 22:48 Cloudy with Light Rain 51 10.6 48 8.9 89 89 N 13 20 29.92 1013 4 6 0.31 7.87
10:52 pm 22:52 Cloudy with Light Rain 51 10.6 48 8.9 89 89 N 13 20 29.92 1013 4 6 0.31 7.87
11:24 pm 23:24 Cloudy with Rain 50 10 48 8.9 93 93 NNE 13 20 29.91 1013 3 5 0.05 1.27
11:52 pm 23:52 Cloudy with Light Rain 50 10 48 8.9 93 93 NNE 12 19 29.90 1012 3 5 0.08 2.03

Powered by AerisWeather